Dewpoint
75 75 73 73 73 75 75 72 68 65 72 73 72 71 70 69 71 71 73 75 75 75 75 75 75 75 75 75 75 74 73 72 73 73 73 72 73 73 72 73 72 71 71
74 74 71 70 70 74 73 73 72 72 73 72 72 71 70 70 70 71 73 74 75 75 75 76 76 76 75 75 75 75 74 73 74 74 74 73 74 74 73 73 73 73 73
73 73 70 70 71 70 68 70 72 74 73 74 73 70 72 72 71 71 71 72 72 75 76 76 76 76 75 76 75 75 75 75 75 74 74 74 74 74 74 74 73 73 73
73 73 70 73 70 71 69 67 72 72 73 73 73 73 72 71 72 71 72 71 72 70 74 75 75 75 75 75 75 75 74 73 75 73 74 74 74 73 73 73 73 73 73
72 72 73 73 75 73 71 70 74 73 73 73 72 71 71 73 74 69 71 70 72 71 72 73 73 73 75 74 74 75 73 73 73 73 73 72 73 73 72 72 73 73 73
72 73 74 74 76 75 74 73 73 73 72 71 71 70 72 71 72 71 70 69 69 70 71 72 73 73 73 74 75 75 74 73 73 73 73 73 73 73 73 73 72 72 72
73 73 73 74 74 74 73 73 73 72 72 72 71 71 71 71 70 70 70 69 66 69 69 69 73 72 72 73 73 74 75 74 74 74 73 73 73 73 73 73 72 72 72
72 74 73 72 72 73 73 73 73 72 72 73 70 70 67 68 69 68 70 69 67 69 68 70 72 72 71 71 72 73 73 74 74 75 74 73 73 73 72 73 72 72 72
72 71 72 73 74 74 73 73 73 73 71 73 73 70 66 65 68 70 69 69 70 71 70 72 71 70 70 69 70 72 72 73 73 74 73 73 73 72 72 72 72 71 71
72 72 72 72 72 73 73 74 74 73 73 70 72 71 70 70 66 65 69 69 70 70 71 72 72 71 69 69 72 71 71 71 72 72 71 71 71 71 71 71 71 71 71
71 70 72 73 73 74 74 74 74 74 73 71 71 71 70 69 69 68 65 67 68 69 70 70 70 72 70 70 69 69 69 69 69 69 69 69 69 69 69 69 69 70 70
70 72 71 72 73 73 74 74 73 72 73 73 72 72 70 69 68 68 66 66 65 66 67 68 68 69 70 70 70 69 68 67 67 68 68 69 69 69 69 69 69 69 69
69 70 71 72 73 73 73 73 73 73 72 72 71 71 71 70 70 70 68 66 64 66 65 65 67 68 69 68 67 67 67 66 65 66 66 66 67 67 67 68 68 68 68
70 71 70 71 71 72 72 72 71 71 71 72 71 71 71 72 71 70 68 66 64 66 66 63 65 66 67 68 66 66 64 65 64 64 63 64 64 64 65 64 65 65 66
69 70 69 69 70 70 71 72 70 69 71 71 71 71 71 71 71 72 71 68 67 63 62 63 62 64 65 66 64 62 62 63 63 62 62 61 61 62 63 62 63 63 63
70 70 68 68 69 69 70 70 68 69 68 68 68 69 70 71 71 72 71 71 69 67 62 63 62 62 63 64 64 63 62 61 61 60 59 59 60 60 61 61 61 61 62
68 69 69 68 68 69 69 70 69 67 67 67 68 67 68 69 70 71 70 70 69 67 59 59 61 61 60 60 60 60 60 59 57 58 57 57 57 57 58 58 59 59 60
70 69 68 68 68 68 68 68 66 66 65 63 65 66 66 66 67 68 67 69 69 68 60 57 58 58 58 58 59 59 58 58 56 56 55 55 55 55 55 55 55 56 57
69 67 68 68 67 67 67 67 67 66 65 63 64 64 65 67 66 68 67 65 64 63 61 57 56 58 57 58 57 57 57 58 57 56 55 54 54 54 54 55 55 54 54
68 68 68 67 67 66 65 66 65 66 64 63 63 62 62 62 64 67 67 65 63 60 59 57 56 57 57 58 58 56 55 55 55 54 55 56 54 54 54 55 55 55 54
68 68 67 67 66 62 56 62 65 64 65 64 62 61 61 61 61 61 64 65 62 59 58 57 57 57 57 57 57 57 56 55 57 56 54 55 54 54 54 54 54 55 54
68 69 67 66 62 55 59 60 63 63 64 64 64 63 63 61 59 59 59 59 64 62 59 58 58 57 58 59 59 58 58 57 56 57 59 57 58 55 53 51 52 54 54
69 68 67 66 63 60 58 60 60 64 63 63 62 61 58 56 60 58 58 58 57 59 61 63 61 61 60 60 61 60 59 59 58 59 59 58 59 57 53 52 52 53 54
68 68 68 67 64 58 57 57 59 65 64 63 62 60 60 58 55 56 53 51 51 53 56 53 55 53 53 54 57 57 60 60 60 59 60 55 57 57 54 51 52 52 53
68 67 67 66 64 61 55 56 56 65 63 62 61 59 59 58 51 51 55 53 52 47 48 50 50 50 50 51 53 54 57 57 55 58 59 57 56 56 53 51 50 52 52
67 65 66 66 62 63 53 53 54 59 62 60 61 58 50 51 49 48 60 58 54 52 52 52 52 52 53 51 56 55 52 48 48 55 51 52 55 54 52 53 50 50 49
Lifted_Index
-4 -4 -3 -3 -3 -4 -4 -3 -1 -1 -3 -4 -4 -4 -3 -3 -3 -4 -4 -4 -3 -4 -4 -4 -4 -4 -4 -4 -4 -3 -3 -3 -3 -3 -3 -2 -2 -2 -2 -2 -2 -1 -1
-3 -3 -2 -2 -3 -3 -3 -2 -2 -2 -3 -4 -4 -4 -3 -3 -3 -3 -4 -4 -3 -3 -4 -4 -4 -4 -4 -4 -4 -4 -3 -3 -3 -3 -3 -3 -2 -2 -2 -2 -2 -2 -2
-2 -2 -2 -2 -2 -2 -1 -1 -3 -3 -4 -4 -4 -3 -3 -3 -3 -3 -3 -3 -3 -3 -4 -4 -4 -5 -5 -5 -4 -4 -4 -4 -4 -3 -3 -3 -3 -2 -2 -2 -2 -2 -2
-1 -1 -2 -2 -2 -1 -1 -1 -3 -4 -4 -4 -3 -3 -3 -3 -3 -3 -3 -3 -3 -3 -4 -4 -4 -4 -4 -5 -4 -4 -4 -3 -3 -3 -3 -3 -3 -2 -2 -1 -2 -2 -2
-1 -1 -2 -3 -3 -2 -2 -2 -3 -4 -3 -3 -3 -3 -3 -3 -3 -3 -3 -3 -3 -3 -3 -3 -3 -3 -4 -4 -4 -4 -4 -3 -3 -3 -2 -2 -2 -2 -1 -1 -2 -2 -2
-1 -2 -3 -4 -4 -4 -3 -3 -3 -3 -3 -3 -3 -3 -3 -3 -3 -3 -3 -3 -2 -3 -3 -3 -3 -3 -3 -4 -4 -4 -4 -3 -3 -3 -3 -3 -2 -2 -2 -2 -2 -2 -2
-2 -2 -3 -3 -4 -4 -4 -3 -3 -3 -3 -3 -3 -2 -3 -3 -3 -3 -3 -2 -2 -3 -3 -3 -3 -3 -3 -3 -4 -4 -4 -4 -4 -3 -3 -3 -3 -3 -2 -2 -2 -1 -1
-2 -3 -3 -3 -3 -3 -3 -3 -3 -3 -3 -3 -3 -2 -2 -2 -2 -2 -2 -2 -2 -2 -3 -3 -3 -3 -3 -2 -2 -3 -3 -4 -4 -4 -4 -3 -3 -3 -2 -2 -2 -1 -1
-2 -2 -3 -2 -2 -3 -3 -3 -3 -3 -3 -3 -3 -2 -2 -2 -2 -2 -1 -1 -2 -2 -3 -3 -2 -2 -1 -1 -1 -2 -2 -3 -3 -4 -4 -3 -3 -3 -3 -2 -2 -1 -1
-2 -2 -2 -2 -2 -3 -3 -3 -3 -3 -3 -3 -2 -2 -2 -2 -2 -1 -1 -1 -2 -2 -2 -2 -2 -1 -1 -0 -0 -1 -1 -2 -2 -2 -2 -2 -2 -2 -2 -2 -2 -1 -1
-2 -2 -2 -2 -2 -3 -3 -4 -4 -3 -3 -3 -2 -2 -2 -2 -2 -2 -1 -1 -1 -1 -2 -2 -2 -1 -1 -1 -0 -0 -0 -0 -1 -1 -1 -1 -1 -1 -1 -1 -1 -1 -1
-3 -2 -2 -2 -2 -3 -3 -3 -3 -3 -3 -2 -2 -2 -2 -2 -2 -2 -2 -1 -1 -1 -1 -1 -1 -1 -1 -0 0 0 0 0 0 0 0 0 0 0 0 0 -0 -0 -0
-3 -2 -2 -2 -2 -2 -3 -3 -2 -2 -2 -2 -2 -2 -2 -2 -2 -2 -2 -1 -1 -1 -1 -1 -0 -0 0 1 1 1 1 1 1 1 1 1 1 1 1 1 1 1 2
-2 -2 -1 -1 -1 -2 -2 -2 -2 -1 -1 -2 -2 -2 -2 -2 -2 -2 -2 -1 -1 -1 -0 0 0 1 1 1 1 1 1 1 2 2 2 2 2 2 3 3 3 3 3
-2 -1 -1 -0 -0 -1 -1 -1 -1 -0 -1 -1 -1 -1 -2 -2 -2 -2 -2 -2 -1 -1 -0 1 1 1 1 1 1 2 2 2 3 3 3 3 4 4 4 5 5 5 5
-1 -1 -0 -0 0 0 -0 -0 0 0 0 0 -0 -1 -1 -2 -2 -2 -2 -2 -1 -1 -0 1 1 2 2 2 2 2 3 3 3 4 4 4 5 5 6 6 7 6 6
-1 -1 -0 -0 0 0 0 0 1 1 1 1 1 0 0 -1 -1 -1 -1 -1 -1 -1 0 1 2 2 2 2 2 3 3 4 4 4 5 5 6 7 7 7 7 7 7
-1 -1 -1 -0 0 1 1 1 1 2 2 2 2 2 1 1 0 -0 -0 -1 -0 0 1 1 1 2 2 3 3 3 4 4 5 5 6 6 7 8 8 8 8 9 9
-1 -1 -0 0 1 1 1 1 1 2 2 3 3 3 2 2 1 0 0 1 1 1 1 1 2 2 3 3 3 4 4 5 5 6 7 8 8 9 9 9 9 10 10
-1 -1 -0 0 1 2 2 2 2 2 3 3 4 4 4 3 2 1 1 2 2 2 2 2 2 2 3 3 4 4 5 5 6 7 8 8 9 9 10 10 11 11 11
-1 -1 -0 1 2 3 3 3 3 3 3 4 4 5 5 5 4 3 2 2 2 3 3 3 3 3 4 4 5 5 5 6 6 7 8 8 8 9 9 10 12 13 13
-1 -1 -0 1 2 4 5 4 4 4 3 4 4 4 5 5 5 4 3 3 3 3 4 4 4 4 5 5 5 6 6 6 6 6 7 7 7 8 9 10 11 13 13
-1 -1 -1 0 2 4 5 5 4 4 3 3 4 4 5 5 6 6 6 5 5 5 5 4 5 5 5 5 5 5 5 5 5 5 6 6 6 7 8 9 10 12 12
-2 -2 -1 -0 2 4 5 4 4 3 3 3 4 5 5 6 6 7 7 7 7 7 7 7 7 8 8 7 7 6 5 4 4 4 5 5 6 6 7 8 9 10 10
-2 -2 -1 -1 1 3 4 4 3 2 2 3 4 5 6 6 7 7 7 8 8 9 9 10 10 10 10 10 9 8 6 6 5 5 5 5 5 6 6 7 7 8 8
-2 -2 -1 -1 1 2 3 3 3 2 3 3 4 5 6 6 7 6 6 7 8 8 9 10 10 11 11 10 10 9 8 7 6 5 5 5 5 5 6 6 6 6 7